Volver al catálogo

FENGYUN 1C DEB

ActivoSSO
NORAD 31536·DEBRIS·🇨🇳 China

Lanzado May 10, 1999 desde Taiyuan Satellite Launch Center

Loading…

Próximos Pases (próximas 24 horas)

TLE

ActualizadoSource: Space-Track

Época: Sep 13, 2026, 05:15 UTC

1 31536U 99025BYB 26256.21917571  .00007671  00000-0  95342-3 0  9994
2 31536  98.2202 165.6923 0279553  12.8655 347.9489 14.58901812  2480

Sigue FENGYUN 1C DEB en tiempo real con AllMySat

Download on the App Store